This is the latest recevied weather packets stored in our database for station/object ZS1DFR-1. If no packets are shown the sender has not sent any weather packets the latest 10 day(s).
| Time | Temp. | Humidity | Pressure | Rain* | Wind** | Luminosity | Snow |
|---|---|---|---|---|---|---|---|
| 1777532004 | 15° C | 87% | 1013.7 hPa | 0 mm | - | - | - |
| 1777531104 | 15° C | 87% | 1013.7 hPa | 0 mm | - | - | - |
| 1777530204 | 14.44° C | 89% | 1013.6 hPa | 0 mm | - | - | - |
| 1777529304 | 14.44° C | 89% | 1013.6 hPa | 0 mm | - | - | - |
| 1777528404 | 14.44° C | 87% | 1013.3 hPa | 0 mm | - | - | - |
| 1777527504 | 14.44° C | 87% | 1013.3 hPa | 0 mm | - | - | - |
| 1777526604 | 14.44° C | 84% | 1013.1 hPa | 0 mm | - | - | - |
| 1777525704 | 14.44° C | 84% | 1013.1 hPa | 0 mm | - | - | - |
| 1777524804 | 13.89° C | 84% | 1012.9 hPa | 0 mm | - | - | - |
| 1777523904 | 13.89° C | 84% | 1012.9 hPa | 0 mm | - | - | - |
| 1777523004 | 13.89° C | 87% | 1012.9 hPa | 0 mm | - | - | - |
| 1777522104 | 13.89° C | 87% | 1012.9 hPa | 0 mm | - | - | - |
| 1777521204 | 13.89° C | 90% | 1013.1 hPa | 0 mm | - | - | - |
| 1777520304 | 13.89° C | 90% | 1013.1 hPa | 0 mm | - | - | - |
| 1777519404 | 13.33° C | 90% | 1013.3 hPa | 0 mm | - | - | - |
| 1777518504 | 13.33° C | 90% | 1013.3 hPa | 0 mm | - | - | - |
| 1777517604 | 12.78° C | 88% | 1013.3 hPa | 0 mm | - | - | - |
| 1777516704 | 12.78° C | 88% | 1013.3 hPa | 0 mm | - | - | - |
| 1777515804 | 13.33° C | 88% | 1013.4 hPa | 0 mm | - | - | - |
| 1777514904 | 13.33° C | 88% | 1013.4 hPa | 0 mm | - | - | - |
| 1777514004 | 13.89° C | 88% | 1013.7 hPa | 0 mm | - | - | - |
| 1777513104 | 13.89° C | 88% | 1013.7 hPa | 0 mm | - | - | - |
| 1777512204 | 14.44° C | 87% | 1014 hPa | 0 mm | - | - | - |
| 1777511304 | 14.44° C | 87% | 1014 hPa | 0 mm | - | - | - |
| 1777510404 | 14.44° C | 86% | 1014.4 hPa | 0 mm | - | - | - |
* Rain latest hour (hover to see other rain measurements)
** Current wind speed in m/s (hover to see current wind gust speed)